DECAYED

STARLINK-31790, 59648 (Decayed)

Orbit data source: Space-Track

STARLINK-31790, 59648 was a payload satellite owned by SpaceX/Seattle (US) in LEO that was launched on Fri, 03 May 2024 UTC via an FALCON 9 launch vehicle from the Air Force Eastern Test Range (AFETR). Payload-class satellites include a variety of spacecraft equipped with specific instruments for various scientific and technological missions. These include communications satellites like Starlink; space stations such as the ISS; scientific satellites like the Hubble; Earth observation satellites from companies like Planet Labs, Umbra, and HawkEye 360; GPS; miniature CubeSats for education and research; and military/defense satellites.

Not visible in the next 10 days
Identifier
59648, 2024-082T
Orbit
Decayed
Country
Flag of USUS
Related business
Manufacturer
SpaceX/Seattle
Mission
Decayed Commercial Communications
Bus & Motor
STARLINK V2M, Unknown motor
Mass
730 kg wet, ~700 kg dry
Launch date (UTC)
2024-05-03 (2 years ago)
Launch vehicle
FALCON 9
Launch site
Air Force Eastern Test Range (AFETR)
Object type
Payload
Rocket body
Debris
Shape & HBR
Box + 2 Pan, 17.7 m
Radar Cross Section
33.884 m², Large (>1 m²)

Expand to show TLE details & history
Last TLE update: 10 months ago

TLE from 10 months ago
0 STARLINK-31790
1 59648U 24082T   25232.83335648  .01177338  85340-3  11621-2 0  9998
2 59648  42.9793 115.4562 0024164 250.5489 134.1287 16.09928298 74979
Epoch: 2025-08-20T20:00Z
TLE epoch observation values (Epoch: 2025-08-20T20:00:01.999Z)
Latitude
16.70963°
Longitude
-135.27513°
Altitude
257.316 km
Speed
7.75 km/s
True Right ascension
08h 56m 33s
True Declination
16° 36' 29"
Sunlit
Object was in daylight at epoch
Visualization orbit readout
Latitude
Unknown
Longitude
Unknown
Altitude
Unknown
Speed
Unknown
Apparent Right ascension
Unknown
Apparent Declination
Unknown
Sunlit
N/A
Visualization observer readout
Local Sidereal Time
21:29:18
Azimuth
Unknown
Elevation
Unknown
Doppler factor
Unknown
Orbital elements
Apogee altitude
265.072 km
Perigee altitude
233.044 km
Semi-major axis
6,627.195 km
Eccentricity
0.00242
Inclination
42.9793°
RAAN
115.4562°
Arg. of periapsis
250.5489°
True anomaly
134.32703°
Mean anomaly
134.1287°
Eccentric anomaly
134.22791°
Mean motion
4.02299 °/min
Orbital period
89.49 mins
BSTAR
0.0011621
Loading maneuver chart data...
Computing Atmospheric mass density...
Loading historical data...
Loading historical data...
Loading historical data...
Loading historical data...
Loading historical data...
Loading historical data...
Loading historical data...

Documentation

Showing up to 5 results
|